Regional Weather Roundup
Issued by NWS

Home | Current Version | Previous Version | Text Only | Print | Product List | Glossary Off
Versions: 1 2 3 4 5 6 7 8 9 10 11 12 13 14 15 16 17 18 19 20 21 22 23 24 25 26 27 28 29 30 31 32 33 34 35 36 37 38 39 40 41 42 43 44 45 46 47 48 49 50

000
ASUS43 KMPX 252110
RWRMN
WEATHER ROUNDUP FOR MINNESOTA
NATIONAL WEATHER SERVICE TWIN CITIES/CHANHASSEN MN
400 PM CDT MON MAY 25 2015


NOTE: "FAIR" INDICATES FEW OR NO CLOUDS BELOW 12,000 FEET WITH NO
SIGNIFICANT WEATHER AND/OR OBSTRUCTIONS TO VISIBILITY. N/A MEANS
CURRENT SKY AND/OR WEATHER CONDITIONS ARE NOT AVAILABLE.

MNZ060>063-068>070-252200-
   Twin Cities Metro

CITY           SKY/WX    TMP DP  RH WIND       PRES   REMARKS
TWIN CITIES    CLOUDY    69  58  67 SW14G21   29.73R
ST PAUL        CLOUDY    68  58  70 SW12G20   29.73R
CRYSTAL        CLOUDY    68  58  70 SW13      29.71R
BLAINE         CLOUDY    70  61  73 SW10G17   29.72R
LAKEVILLE      CLOUDY    70  57  64 SW10G17   29.74R
EDEN PRAIRIE   CLOUDY    68  59  73 SW14G20   29.72R
SOUTH ST PAUL  CLOUDY    70  58  67 SW9G17    29.73R
LAKE ELMO      CLOUDY    68  59  73 SW12G17   29.75R
$$
MNZ001>005-007-008-013>017-022>024-027-028-252200-
   Northwest Minnesota

CITY           SKY/WX    TMP DP  RH WIND       PRES   REMARKS
BEMIDJI        LGT RAIN  59  55  88 NE9       29.78R
HALLOCK        CLOUDY    77  43  29 NE8       29.74S
ROSEAU         CLOUDY    73  52  46 E8        29.75S
WARROAD        CLOUDY    70  57  64 SE7       29.76F
THIEF RVR FALL CLOUDY    66  52  59 SE5       29.79R
CROOKSTON      CLOUDY    70  52  52 S5        29.78S
FOSSTON        DRIZZLE   61  57  88 NE5       29.78S
DETROIT LAKES  DRIZZLE   59  54  82 NE15G22   29.77S
MOORHEAD       CLOUDY    64  54  68 NE15      29.78S
PARK RAPIDS    LGT RAIN  59  53  80 N17G24    29.73R
MAHNOMEN       CLOUDY    60  54  80 NE10      29.77S
$$
MNZ006-009>011-018-025>026-252200-
   North Central Minnesota

CITY           SKY/WX    TMP DP  RH WIND       PRES   REMARKS
BAUDETTE       CLOUDY    67  52  58 S3        29.75F
FLAG ISLAND    CLOUDY    63  55  77 S7        29.75S
INTL FALLS     LGT RAIN  62  54  74 CALM      29.77S
WASKISH        CLOUDY    64  55  72 CALM      29.78S
BIG FORK       RAIN      59  55  88 NE5       29.77S
LONGVILLE      RAIN      55  55 100 NE9G20    29.71R
GRAND RAPIDS   CLOUDY    57  52  82 NE9G17    29.73R
CRANE LAKE     LGT RAIN  55  54  94 NE3       29.78S
ORR            CLOUDY    57  54  88 N2        29.73S
COOK           CLOUDY    57  54  88 NE6       29.75R
WALKER         DRIZZLE   57  54  90 N8        29.75R
$$
MNZ012-019>021-037-252200-
   Northeast Minnesota

CITY           SKY/WX    TMP DP  RH WIND       PRES   REMARKS
DULUTH         CLOUDY    55  52  89 E8        29.71S FOG
ELY            LGT RAIN  57  54  88 NE13G18   29.72F
HIBBING        RAIN      57  53  86 NE9       29.73R FOG
EVELETH        RAIN      57  54  88 NE10      29.73R
DULUTH HARBOR  DRIZZLE   46  45  93 NE8       29.73R
TWO HARBORS    CLOUDY    54  48  82 NE12G20   29.70S HAZE
GRAND MARAIS     N/A     54  52  93 NE7       29.70R
G MARAIS ARPRT DRIZZLE   54  50  87 N10G17    29.73R
$$
MNZ029>031-032-039>041-046>048-054>057-064-252200-
   West Central Minnesota

CITY           SKY/WX    TMP DP  RH WIND       PRES   REMARKS
FERGUS FALLS   PTSUNNY   63  54  72 NE14G24   29.74R
WHEATON        CLOUDY    59  54  82 N16G22    29.77R
MORRIS         CLOUDY    64  57  77 N8        29.71R
ALEXANDRIA     CLOUDY    61  57  87 N10       29.71R
ELBOW LAKE     CLOUDY    62  56  79 NE23      29.71R
WADENA         DRIZZLE   57  55  94 N15G25    29.70R
GLENWOOD       PTSUNNY   66  57  72 W10       29.70R
APPLETON       CLOUDY    64  55  72 W8        29.73R
BENSON         CLOUDY    66  55  68 NW13      29.71R
ORTONVILLE     CLOUDY    61  55  82 N10       29.75R
MADISON        PTSUNNY   64  57  77 W12       29.74R
WILLMAR        FAIR      66  61  82 SW17      29.73R
$$
MNZ033>034-036-042>043-049>051-058-059-252200-
   Central Minnesota

CITY           SKY/WX    TMP DP  RH WIND       PRES   REMARKS
ST CLOUD       CLOUDY    66  58  75 SW10      29.69S
SAUK CENTRE    CLOUDY    65  57  76 SW6       29.69R
PAYNESVILLE    CLOUDY    63  56  78 S16G22    29.72R
AITKIN         DRIZZLE   57  52  82 NE6       29.68R
PINE RIVER     DRIZZLE   57  57 100 N6        29.74R
BRAINERD       LGT RAIN  59  57  93 NE5       29.69R FOG
STAPLES        DRIZZLE   57  57 100 CALM      29.69R
LONG PRAIRIE   CLOUDY    63  55  77 SW6       29.69R
LITTLE FALLS   CLOUDY    63  55  77 SW5       29.68S
LITCHFIELD     CLOUDY    68  61  77 SW9       29.73R
BUFFALO        CLOUDY    66  57  73 S12       29.73R
MAPLE LAKE     CLOUDY    68  60  74 S10       29.72R
$$
MNZ037-044-045-052-053-252200-
   East Central Minnesota

CITY           SKY/WX    TMP DP  RH WIND       PRES   REMARKS
PRINCETON      PTSUNNY   70  59  68 SW9       29.70S
MORA           PTSUNNY   64  59  82 SW10G17   29.70S
CAMBRIDGE      PTSUNNY   68  55  64 SW7       29.69R
RUSH CITY      CLOUDY    67  57  70 SW10      29.70S
MOOSE LAKE     CLOUDY    54  52  94 N3        29.69R
HINCKLEY       CLOUDY    63  59  88 SW6       29.69R
CLOQUET        RAIN      52  50  93 CALM      29.71R
MCGREGOR       CLOUDY    55  54  94 E9        29.70S
$$
MNZ071>073-080-081-089-090-097-098-252200-
   Southwest Minnesota

CITY           SKY/WX    TMP DP  RH WIND       PRES   REMARKS
MONTEVIDEO     CLOUDY    68  61  77 W8        29.74R
GRANITE FALLS  CLOUDY    65  58  77 W15       29.76R
CANBY          CLOUDY    65  57  77 W10       29.77R
MARSHALL       CLOUDY    66  54  63 W15       29.75S
REDWOOD FALLS  CLOUDY    68  58  70 W9        29.74R
OLIVIA         CLOUDY    64  55  72 W17       29.74R
PIPESTONE      PTSUNNY   66  57  72 W12       29.77S
WINDOM         MOSUNNY   73  57  56 SW20      29.75F
WORTHINGTON    PTSUNNY   72  59  64 SW14G22   29.76F
JACKSON        MOSUNNY   73  61  64 SW15G22   29.76F
TRACY          PTSUNNY   70  60  70 W9        29.76S
SLAYTON        PTSUNNY   71  58  64 W15       29.77S
$$
MNZ065>067-074>077-082>085-091>093-252200-
   South Central Minnesota

CITY           SKY/WX    TMP DP  RH WIND       PRES   REMARKS
MANKATO        CLOUDY    72  59  64 W14       29.75S
NEW ULM        PTSUNNY   72  59  64 W13       29.73F
FAIRMONT       PTSUNNY   73  57  56 SW21      29.75F
GLENCOE        CLOUDY    68  61  76 SW9G16    29.73S
FARIBAULT      PTSUNNY   72  61  68 SW13      29.75S
OWATONNA       MOSUNNY   72  59  64 SW16G23   29.76S
WASECA         PTSUNNY   73  61  64 W22       29.76F
ALBERT LEA     MOSUNNY   70  63  78 S10G20    29.77R
$$
MNZ078>079-086>088-094>096-252200-
   Southeast Minnesota

CITY           SKY/WX    TMP DP  RH WIND       PRES   REMARKS
ROCHESTER      MOSUNNY   72  63  73 SW23      29.77S
RED WING       CLOUDY    73  57  56 W14       29.73R
STANTON        CLOUDY    73  60  63 W13G20    29.73S
DODGE CENTER   MOSUNNY   72  63  73 SW9       29.76S
WINONA         MOSUNNY   75  59  57 SW12G20   29.75R
AUSTIN         TSTM      66  61  82 SW21      29.79R
PRESTON        PTSUNNY   65  61  86 SW7       29.79F FOG
$$
ABBREVIATIONS USED IN REMARKS
   TC - TEMPERATURES IN CELSIUS
  WCI - WIND CHILL INDEX
   HX - HEAT INDEX
  VSB - VISIBILITY
$$


USA.gov is the U.S. government's official web portal to all federal, state and local government web resources and services.